When you browse on this site, cookies collect data to enhance your experience and personalize the content and advertising you see.
Visit our Privacy Policy to learn more. By continuing to use the site, you agree to this use of cookies and data.
  • In Portugal
  • List of Countries
  • For 7 days
  • Water Temperature
  • Weather Map
  • Weather Widgets
  • user-avatar
    Login

    Hourly Weather Idzhewan

    Today, 11 December, Wednesday

    Time Temperature Precipitation Wind Pressure Humidity
    00:00 +3°C° 0 mm 1 mps 694 mmHg 75%
    01:00 +2°C° 0 mm 2 mps 694 mmHg 74%
    02:00 +2°C° 0 mm 2 mps 693 mmHg 74%
    03:00 +1°C° 0 mm 2 mps 694 mmHg 73%
    04:00 +1°C° 0 mm 2 mps 694 mmHg 73%
    05:00 +1°C° 0 mm 2 mps 694 mmHg 73%
    06:00 +1°C° 0 mm 2 mps 694 mmHg 73%
    07:00 +2°C° 0 mm 2 mps 694 mmHg 70%
    08:00 +3°C° 0 mm 2 mps 694 mmHg 67%
    09:00 +4°C° 0 mm 2 mps 694 mmHg 64%
    10:00 +6°C° 0 mm 1 mps 694 mmHg 61%
    11:00 +7°C° 0 mm 1 mps 693 mmHg 58%
    12:00 +8°C° 0 mm 1 mps 693 mmHg 55%
    13:00 +8°C° 0 mm 1 mps 693 mmHg 57%
    14:00 +8°C° 0 mm 1 mps 693 mmHg 59%
    15:00 +8°C° 0 mm 1 mps 693 mmHg 61%
    16:00 +7°C° 0 mm 1 mps 693 mmHg 64%
    17:00 +4°C° 0 mm 2 mps 693 mmHg 67%
    18:00 +3°C° 0 mm 2 mps 693 mmHg 70%
    19:00 +3°C° 0 mm 2 mps 693 mmHg 70%
    20:00 +3°C° 0 mm 2 mps 693 mmHg 69%
    21:00 +3°C° 0 mm 2 mps 694 mmHg 68%
    22:00 +3°C° 0 mm 1 mps 694 mmHg 69%
    23:00 +3°C° 0 mm 1 mps 694 mmHg 70%

    Tomorrow, 12 December, Thursday

    Time Temperature Precipitation Wind Pressure Humidity
    00:00 +3°C° 0 mm 1 mps 694 mmHg 70%
    01:00 +3°C° 0 mm 1 mps 694 mmHg 71%
    02:00 +3°C° 0 mm 1 mps 694 mmHg 72%
    03:00 +2°C° 0 mm 1 mps 693 mmHg 72%
    04:00 +2°C° 0 mm 1 mps 693 mmHg 73%
    05:00 +2°C° 0 mm 1 mps 693 mmHg 73%
    06:00 +2°C° 0 mm 1 mps 693 mmHg 74%
    07:00 +3°C° 0 mm 1 mps 694 mmHg 71%
    08:00 +4°C° 0 mm 1 mps 694 mmHg 69%
    09:00 +4°C° 0 mm 1 mps 694 mmHg 66%
    10:00 +5°C° 0 mm 1 mps 694 mmHg 65%
    11:00 +6°C° 0 mm 1 mps 693 mmHg 64%
    12:00 +7°C° 0 mm 1 mps 693 mmHg 62%
    13:00 +7°C° 0 mm 1 mps 692 mmHg 66%
    14:00 +7°C° 0 mm 1 mps 692 mmHg 69%
    15:00 +6°C° 0 mm 1 mps 692 mmHg 73%
    16:00 +5°C° 0 mm 1 mps 692 mmHg 78%
    17:00 +4°C° 0 mm 1 mps 692 mmHg 82%
    18:00 +2°C° 0 mm 0 mps 692 mmHg 87%
    19:00 +2°C° 0 mm 0 mps 691 mmHg 87%
    20:00 +2°C° 0 mm 0 mps 691 mmHg 87%
    21:00 +2°C° 0 mm 0 mps 691 mmHg 86%
    22:00 +2°C° 0 mm 0 mps 691 mmHg 87%
    23:00 +2°C° 0 mm 0 mps 691 mmHg 87%

    Day after tomorrow, 13 December, Friday

    Time Temperature Precipitation Wind Pressure Humidity
    00:00 +2°C° 0 mm 0 mps 691 mmHg 87%
    01:00 +2°C° 0 mm 0 mps 691 mmHg 88%
    02:00 +2°C° 0 mm 0 mps 690 mmHg 88%
    03:00 +2°C° 0 mm 0 mps 690 mmHg 89%
    04:00 +2°C° 0 mm 0 mps 690 mmHg 89%
    05:00 +2°C° 0 mm 0 mps 690 mmHg 89%
    06:00 +2°C° 0 mm 0 mps 690 mmHg 89%
    07:00 +2°C° 0 mm 0 mps 690 mmHg 87%
    08:00 +3°C° 0 mm 0 mps 690 mmHg 85%
    09:00 +3°C° 0 mm 0 mps 690 mmHg 83%
    10:00 +5°C° 0 mm 1 mps 690 mmHg 82%
    11:00 +5°C° 0 mm 1 mps 690 mmHg 80%
    12:00 +6°C° 0 mm 1 mps 689 mmHg 79%
    13:00 +6°C° 0 mm 1 mps 689 mmHg 81%
    14:00 +5°C° 0 mm 1 mps 689 mmHg 83%
    15:00 +5°C° 0 mm 1 mps 689 mmHg 85%
    16:00 +5°C° 0 mm 1 mps 689 mmHg 87%
    17:00 +3°C° 0 mm 0 mps 690 mmHg 88%
    18:00 +3°C° 0 mm 0 mps 690 mmHg 90%
    19:00 +3°C° 0 mm 0 mps 690 mmHg 89%
    20:00 +3°C° 0 mm 0 mps 690 mmHg 88%
    21:00 +4°C° 0 mm 1 mps 691 mmHg 87%
    22:00 +4°C° 0 mm 1 mps 691 mmHg 87%
    23:00 +4°C° 0 mm 1 mps 691 mmHg 87%

    14 December, Saturday

    Time Temperature Precipitation Wind Pressure Humidity
    00:00 +4°C° 0 mm 1 mps 691 mmHg 86%
    01:00 +4°C° 0 mm 1 mps 691 mmHg 86%
    02:00 +4°C° 0 mm 1 mps 691 mmHg 85%
    03:00 +4°C° 0 mm 1 mps 692 mmHg 85%
    04:00 +4°C° 0 mm 1 mps 692 mmHg 84%
    05:00 +4°C° 0 mm 1 mps 692 mmHg 83%
    06:00 +3°C° 0 mm 2 mps 692 mmHg 83%
    07:00 +4°C° 0 mm 2 mps 693 mmHg 79%
    08:00 +6°C° 0 mm 1 mps 693 mmHg 76%
    09:00 +7°C° 0 mm 1 mps 694 mmHg 73%
    10:00 +8°C° 0 mm 1 mps 693 mmHg 69%
    11:00 +9°C° 0 mm 1 mps 693 mmHg 65%
    12:00 +10°C° 0 mm 1 mps 693 mmHg 61%
    13:00 +10°C° 0 mm 1 mps 693 mmHg 63%
    14:00 +10°C° 0 mm 1 mps 693 mmHg 64%
    15:00 +9°C° 0 mm 1 mps 693 mmHg 66%
    16:00 +7°C° 0 mm 2 mps 693 mmHg 69%
    17:00 +6°C° 0 mm 2 mps 693 mmHg 73%
    18:00 +5°C° 0 mm 2 mps 694 mmHg 77%
    19:00 +5°C° 0 mm 2 mps 694 mmHg 76%
    20:00 +5°C° 0 mm 2 mps 694 mmHg 76%
    21:00 +4°C° 0 mm 2 mps 694 mmHg 75%
    22:00 +4°C° 0 mm 2 mps 694 mmHg 75%
    23:00 +4°C° 0 mm 2 mps 694 mmHg 75%

    15 December, Sunday

    Time Temperature Precipitation Wind Pressure Humidity
    00:00 +4°C° 0 mm 2 mps 694 mmHg 75%
    01:00 +4°C° 0 mm 2 mps 694 mmHg 75%
    02:00 +4°C° 0 mm 2 mps 694 mmHg 75%
    03:00 +4°C° 0 mm 2 mps 695 mmHg 75%
    04:00 +4°C° 0 mm 2 mps 694 mmHg 75%
    05:00 +4°C° 0 mm 2 mps 694 mmHg 75%
    06:00 +4°C° 0 mm 2 mps 694 mmHg 75%
    07:00 +5°C° 0 mm 2 mps 694 mmHg 72%
    08:00 +6°C° 0 mm 2 mps 695 mmHg 69%
    09:00 +6°C° 0 mm 2 mps 695 mmHg 66%
    10:00 +7°C° 0 mm 2 mps 695 mmHg 63%
    11:00 +9°C° 0 mm 1 mps 694 mmHg 60%
    12:00 +10°C° 0 mm 1 mps 694 mmHg 57%
    13:00 +10°C° 0 mm 1 mps 694 mmHg 59%
    14:00 +10°C° 0 mm 1 mps 694 mmHg 60%
    15:00 +10°C° 0 mm 1 mps 694 mmHg 62%
    16:00 +9°C° 0 mm 1 mps 694 mmHg 66%
    17:00 +8°C° 0 mm 1 mps 695 mmHg 69%
    18:00 +6°C° 0 mm 2 mps 695 mmHg 73%
    19:00 +6°C° 0 mm 2 mps 695 mmHg 72%
    20:00 +6°C° 0 mm 2 mps 695 mmHg 71%
    21:00 +6°C° 0 mm 2 mps 696 mmHg 70%
    22:00 +6°C° 0 mm 2 mps 696 mmHg 70%
    23:00 +5°C° 0 mm 2 mps 696 mmHg 70%

    16 December, Monday

    Time Temperature Precipitation Wind Pressure Humidity
    00:00 +5°C° 0 mm 2 mps 696 mmHg 70%
    01:00 +5°C° 0 mm 2 mps 696 mmHg 70%
    02:00 +5°C° 0 mm 2 mps 696 mmHg 70%
    03:00 +6°C° 0 mm 1 mps 697 mmHg 70%
    04:00 +6°C° 0 mm 1 mps 697 mmHg 70%
    05:00 +6°C° 0 mm 1 mps 697 mmHg 70%
    06:00 +6°C° 0 mm 1 mps 697 mmHg 69%
    07:00 +7°C° 0 mm 1 mps 698 mmHg 67%
    08:00 +7°C° 0 mm 1 mps 698 mmHg 65%
    09:00 +7°C° 0 mm 0 mps 699 mmHg 62%
    10:00 +9°C° 0 mm 1 mps 699 mmHg 60%
    11:00 +10°C° 0 mm 1 mps 699 mmHg 57%
    12:00 +11°C° 0 mm 1 mps 699 mmHg 55%
    13:00 +10°C° 0 mm 1 mps 698 mmHg 57%
    14:00 +10°C° 0 mm 1 mps 698 mmHg 59%
    15:00 +10°C° 0 mm 1 mps 698 mmHg 61%
    16:00 +9°C° 0 mm 1 mps 698 mmHg 67%
    17:00 +8°C° 0 mm 1 mps 698 mmHg 72%
    18:00 +6°C° 0 mm 1 mps 699 mmHg 78%
    19:00 +5°C° 0 mm 0 mps 699 mmHg 78%
    20:00 +5°C° 0 mm 0 mps 699 mmHg 79%
    21:00 +5°C° 0 mm 0 mps 700 mmHg 79%
    22:00 +5°C° 0 mm 0 mps 700 mmHg 81%
    23:00 +4°C° 0 mm 0 mps 700 mmHg 83%
    Show more